Stations météo

Publicité
Boulogne, France (7002): Température de l'air & dewpoint: 20.06.2019 19:00:00 - 26.06.2019 19:00:00 (CEST)Boulogne, France (7002): Vitesse du vent & gusts: 20.06.2019 19:00:00 - 26.06.2019 19:00:00 (CEST)Boulogne, France (7002): Direction du vent: 20.06.2019 19:00:00 - 26.06.2019 19:00:00 (CEST)Boulogne, France (7002): reduced air pressure: 20.06.2019 19:00:00 - 26.06.2019 19:00:00 (CEST)Boulogne, France (7002): visibility: 20.06.2019 19:00:00 - 26.06.2019 19:00:00 (CEST)Boulogne, France (7002): Quantités de précipitations: 20.06.2019 19:00:00 - 26.06.2019 19:00:00 (CEST)
Date & Time tt [°C] td [°C] ff [km/h] ff [knt] fx [km/h] fx [knt] dd ppp [hPa] vv [km] rr [mm]
26.06.2019 19:00:00 16,9 14,0 20 11 61 33 NE 1025,6 - 0,0
26.06.2019 18:00:00 16,4 14,1 21 11 58 31 NE 1025,7 - 0,0
26.06.2019 17:00:00 17,5 14,6 30 16 59 32 ENE 1025,1 4,0 0,0
26.06.2019 16:00:00 17,7 14,8 23 13 54 29 NE 1026,1 - 0,0
26.06.2019 15:00:00 17,4 14,9 25 14 52 28 NE 1026,1 - 0,2
26.06.2019 14:00:00 17,0 15,0 23 12 49 26 NE 1026,3 4,0 0,0
26.06.2019 13:00:00 16,2 14,9 16 8 41 22 NE 1026,8 - 0,0
26.06.2019 12:00:00 16,2 15,1 16 9 42 23 NE 1027,0 - 0,0
26.06.2019 11:00:00 16,1 15,1 14 7 43 23 NE 1025,7 - 0,0
26.06.2019 10:00:00 15,4 14,9 16 9 41 22 NE 1026,1 - 0,0
26.06.2019 09:00:00 15,1 14,8 17 9 40 22 NE 1025,4 - 0,0
26.06.2019 08:00:00 15,1 14,8 15 8 35 19 NE 1025,6 1,2 0,0
26.06.2019 07:00:00 15,5 15,2 15 8 38 20 NE 1024,5 - 0,0
26.06.2019 06:00:00 15,6 15,3 18 10 44 24 NE 1023,9 - 0,0
26.06.2019 05:00:00 16,4 15,8 19 10 34 18 NNE 1023,5 - 0,0
26.06.2019 04:00:00 17,1 16,0 14 7 31 17 NE 1023,2 - 0,0
26.06.2019 03:00:00 17,3 16,0 10 6 25 13 NNE 1023,5 - 0,0
26.06.2019 02:00:00 17,9 16,1 13 7 25 14 NE 1023,0 7 0,0
26.06.2019 01:00:00 18,3 16,1 14 8 27 15 ENE 1022,6 - 0,0
26.06.2019 00:00:00 18,8 16,4 15 8 22 12 ENE 1022,1 - 0,0
25.06.2019 23:00:00 19,2 16,6 12 7 23 12 ENE 1022,3 12 0,0
25.06.2019 22:00:00 19,3 17,1 8 4 17 9 NNE 1021,5 - 0,0
25.06.2019 21:00:00 18,4 16,6 4 2 10 5 NW 1021,1 - 0,0
25.06.2019 20:00:00 18,8 16,6 6 3 16 8 WNW 1020,8 3,0 0,0
25.06.2019 19:00:00 17,9 16,6 10 5 20 11 NW 1020,0 - 0,0
25.06.2019 18:00:00 20,9 17,7 10 6 19 10 NNW 1019,2 - 0,0
25.06.2019 17:00:00 21,0 17,0 7 4 14 8 NW 1018,8 3,0 0,0
25.06.2019 16:00:00 22,1 18,3 7 4 22 12 NNW 1018,0 - 0,0
25.06.2019 15:00:00 20,6 17,4 12 7 20 11 NNW 1017,4 - 0,0
25.06.2019 14:00:00 21,7 17,9 11 6 25 14 N 1016,9 8 0,0
25.06.2019 13:00:00 21,6 17,6 16 8 22 12 N 1016,2 - 0,0
25.06.2019 12:00:00 23,6 17,8 10 5 25 13 NE 1015,5 - 0,0
25.06.2019 11:00:00 21,9 16,8 13 7 35 19 NE 1015,2 12 0,0
25.06.2019 10:00:00 21,3 17,1 14 8 39 21 NE 1015,0 - 0,0
25.06.2019 09:00:00 19,6 16,6 16 9 42 23 NE 1014,9 - 0,0
25.06.2019 08:00:00 18,6 16,0 22 12 41 22 NNE 1015,2 8 0,0
25.06.2019 07:00:00 18,4 16,2 13 7 37 20 NNE 1015,5 - 0,0
25.06.2019 06:00:00 18,2 16,2 13 7 69 37 NNE 1015,4 - 0,0
25.06.2019 05:00:00 18,7 15,4 19 11 50 27 W 1016,5 10 0,0
25.06.2019 04:00:00 18,6 14,1 18 10 34 18 NE 1015,0 - 0,0
25.06.2019 03:00:00 19,0 13,8 11 6 34 18 NNE 1016,2 - 0,0
25.06.2019 02:00:00 19,7 13,8 19 11 37 20 NE 1016,2 - 0,0
25.06.2019 01:00:00 19,4 14,0 12 6 26 14 NE 1017,1 - 0,0
25.06.2019 00:00:00 19,1 14,1 9 5 19 10 NE 1017,4 - 0,0
24.06.2019 23:00:00 16,3 14,8 11 6 17 9 N 1018,1 10 0,0
24.06.2019 22:00:00 15,8 14,8 9 5 20 11 NE 1018,0 - 0,0
24.06.2019 21:00:00 16,1 15,3 10 5 21 11 NNW 1018,2 - 0,0
24.06.2019 20:00:00 17,2 15,9 3 2 12 6 N 1017,5 6 0,0
24.06.2019 19:00:00 19,0 17,0 4 2 9 5 ENE 1017,4 - 0,0
24.06.2019 18:00:00 18,9 16,5 5 3 11 6 WSW 1017,7 - 0,0
24.06.2019 17:00:00 18,3 16,6 7 4 12 6 SE 1017,6 6 0,2
24.06.2019 16:00:00 17,5 15,7 8 4 21 11 SSW 1018,3 - 0,2
24.06.2019 15:00:00 17,3 15,3 11 6 40 22 SSW 1018,4 - 0,0
24.06.2019 14:00:00 19,7 15,8 11 6 31 17 S 1018,2 10 0,0
24.06.2019 13:00:00 18,7 15,9 16 9 29 16 S 1018,2 - 0,0
24.06.2019 12:00:00 19,6 16,4 8 4 32 18 S 1016,5 - 0,0
24.06.2019 11:00:00 21,4 16,8 13 7 38 21 SSW 1016,4 18 0,0
24.06.2019 10:00:00 22,7 16,7 22 12 41 22 SSW 1015,8 - 0,0
24.06.2019 09:00:00 24,0 17,3 14 8 29 16 SSE 1015,0 - 0,0
24.06.2019 08:00:00 22,6 16,8 16 9 29 16 SE 1014,4 18 0,0
24.06.2019 07:00:00 21,7 16,9 18 10 30 16 SE 1014,4 - 0,0
24.06.2019 06:00:00 21,6 16,8 18 10 32 17 SE 1014,1 - 0,0
24.06.2019 05:00:00 22,1 16,8 20 11 30 16 SE 1014,1 - 0,0
24.06.2019 04:00:00 22,7 16,7 16 9 36 20 SE 1014,2 - 0,0
24.06.2019 03:00:00 23,4 16,9 21 11 37 20 ESE 1014,3 - 0,0
24.06.2019 02:00:00 23,6 17,1 16 9 29 16 SE 1014,6 8 0,0
24.06.2019 01:00:00 23,7 17,2 14 7 27 15 SE 1014,9 - 0,0
24.06.2019 00:00:00 24,2 17,2 16 9 30 16 SE 1014,9 - 0,0
23.06.2019 23:00:00 24,4 17,1 14 8 24 13 ESE 1014,8 - 0,0
23.06.2019 22:00:00 24,8 16,8 13 7 25 14 ESE 1014,4 - 0,0
23.06.2019 21:00:00 25,2 16,6 15 8 29 16 ESE 1014,3 - 0,0
23.06.2019 20:00:00 25,6 15,9 17 9 37 20 ESE 1014,2 - 0,0
23.06.2019 19:00:00 26,4 15,7 19 10 39 21 ESE 1014,0 - 0,0
23.06.2019 18:00:00 27,0 16,3 18 10 31 17 ESE 1014,3 - 0,0
23.06.2019 17:00:00 26,4 16,3 18 10 36 20 E 1014,7 - 0,0
23.06.2019 16:00:00 26,4 16,0 16 9 34 19 ESE 1014,8 - 0,0
23.06.2019 15:00:00 26,8 15,5 15 8 39 21 E 1015,3 - 0,0
23.06.2019 14:00:00 26,1 15,8 15 8 30 16 E 1015,8 - 0,0
23.06.2019 13:00:00 25,9 16,4 13 7 30 16 E 1016,1 - 0,0
23.06.2019 12:00:00 24,5 15,7 16 9 32 18 ESE 1016,4 - 0,0
23.06.2019 11:00:00 23,0 15,6 14 8 25 13 E 1016,7 8 0,0
23.06.2019 10:00:00 21,8 14,7 11 6 29 15 E 1016,9 - 0,0
23.06.2019 09:00:00 20,0 13,9 17 9 36 20 E 1016,9 - 0,0
23.06.2019 08:00:00 18,1 13,2 20 11 33 18 E 1017,1 7 0,0
23.06.2019 07:00:00 16,2 12,9 20 11 36 19 E 1017,5 - 0,0
23.06.2019 06:00:00 15,7 12,8 20 11 35 19 E 1017,7 - 0,0
23.06.2019 05:00:00 15,5 12,8 21 12 32 17 E 1018,0 - 0,0
23.06.2019 04:00:00 15,3 12,8 16 9 29 15 E 1018,3 - 0,0
23.06.2019 03:00:00 15,3 12,6 15 8 38 20 ENE 1018,7 - 0,0
23.06.2019 02:00:00 15,5 12,3 26 14 38 20 ENE 1018,6 15 0,0
23.06.2019 01:00:00 15,3 11,9 23 13 39 21 ENE 1019,2 - 0,0
23.06.2019 00:00:00 15,5 11,5 27 14 38 21 ENE 1019,6 - 0,0
22.06.2019 23:00:00 15,5 11,3 26 14 38 20 ENE 1019,8 15 0,0
22.06.2019 22:00:00 16,3 11,0 24 13 35 19 ENE 1019,6 - 0,0
22.06.2019 21:00:00 17,5 10,8 21 11 38 20 ENE 1019,3 - 0,0
22.06.2019 20:00:00 18,6 10,9 18 10 36 19 NE 1019,4 15 0,0
22.06.2019 19:00:00 19,4 10,9 15 8 33 18 NE 1019,5 - 0,0
22.06.2019 18:00:00 20,1 11,8 15 8 40 22 NE 1019,5 - 0,0
22.06.2019 17:00:00 20,0 11,7 16 8 37 20 NE 1020,1 - 0,0
22.06.2019 16:00:00 20,2 11,4 14 8 34 18 NE 1020,5 - 0,0
22.06.2019 15:00:00 20,2 10,3 18 10 34 19 NE 1020,8 - 0,0
22.06.2019 14:00:00 20,6 8,9 8 5 25 14 ENE 1021,3 20 0,0
22.06.2019 13:00:00 19,3 8,6 10 5 21 11 N 1021,7 - 0,0
22.06.2019 12:00:00 19,1 7,5 11 6 26 14 NNE 1021,8 - 0,0
22.06.2019 11:00:00 18,3 8,3 11 6 27 14 E 1022,0 - 0,0
22.06.2019 10:00:00 17,7 9,3 12 6 24 13 E 1022,2 - 0,0
22.06.2019 09:00:00 16,3 10,2 10 6 22 12 E 1022,4 - 0,0
22.06.2019 08:00:00 14,5 9,7 8 4 15 8 E 1022,6 - 0,0
22.06.2019 07:00:00 11,7 9,8 2 1 6 4 SSW 1022,9 - 0,0
22.06.2019 06:00:00 11,3 9,7 5 3 14 8 SE 1022,5 - 0,0
22.06.2019 05:00:00 11,5 9,7 5 3 13 7 SE 1022,6 - 0,0
22.06.2019 04:00:00 11,3 9,9 6 3 11 6 SE 1022,6 - 0,0
22.06.2019 03:00:00 12,2 10,8 4 2 8 4 ESE 1022,5 - 0,0
22.06.2019 02:00:00 12,4 11,0 5 3 10 5 ESE 1022,7 10 0,0
22.06.2019 01:00:00 12,7 11,1 6 3 11 6 SE 1022,8 - 0,0
22.06.2019 00:00:00 13,4 11,1 3 2 11 6 SW 1022,8 - 0,0
21.06.2019 23:00:00 13,6 11,3 5 3 15 8 WSW 1022,7 10 0,0
21.06.2019 22:00:00 14,0 11,5 7 4 14 7 WSW 1022,4 - 0,0
21.06.2019 21:00:00 14,7 12,0 11 6 22 12 W 1022,2 - 0,0
21.06.2019 20:00:00 15,0 11,8 16 8 22 12 WSW 1022,0 - 0,0
21.06.2019 19:00:00 15,9 12,3 15 8 31 17 WSW 1021,8 - 0,0
21.06.2019 18:00:00 15,9 12,3 20 11 31 17 SW 1021,6 - 0,0
21.06.2019 17:00:00 15,7 11,7 21 12 35 19 SW 1021,4 13 0,0
21.06.2019 16:00:00 16,0 10,1 19 10 33 18 WSW 1021,4 - 0,0
21.06.2019 15:00:00 15,7 8,9 21 12 30 16 WSW 1021,3 - 0,0
21.06.2019 14:00:00 15,9 10,6 16 9 29 15 WSW 1021,1 18 0,0
21.06.2019 13:00:00 15,0 11,0 18 10 29 16 W 1020,8 - 0,0
21.06.2019 12:00:00 15,5 12,1 17 9 30 16 WSW 1020,6 - 0,0
21.06.2019 11:00:00 15,0 10,6 13 7 22 12 W 1020,3 - 0,0
21.06.2019 10:00:00 14,3 10,1 15 8 27 14 W 1020,0 - 0,0
21.06.2019 09:00:00 13,9 9,9 16 9 30 16 W 1019,7 - 0,0
21.06.2019 08:00:00 13,6 9,6 18 10 29 16 WNW 1019,1 - 0,0
21.06.2019 07:00:00 13,3 8,8 19 11 35 19 W 1018,7 - 0,0
21.06.2019 06:00:00 13,3 11,9 20 11 36 20 W 1018,3 - 0,0
21.06.2019 05:00:00 13,3 11,5 23 12 41 22 WSW 1018,0 - 0,0
21.06.2019 04:00:00 13,5 11,4 24 13 40 22 WSW 1017,9 - 0,0
21.06.2019 03:00:00 13,5 11,4 25 13 39 21 WSW 1017,8 - 0,0
21.06.2019 02:00:00 13,5 11,9 26 14 40 21 WSW 1017,7 12 0,0
21.06.2019 01:00:00 13,6 12,2 22 12 35 19 WSW 1017,4 - 0,0
21.06.2019 00:00:00 13,5 11,5 21 11 37 20 WSW 1017,1 - 0,0
20.06.2019 23:00:00 13,6 11,3 22 12 41 22 WSW 1017,0 - 0,0
20.06.2019 22:00:00 13,7 11,6 27 14 42 23 WSW 1016,5 - 0,0
20.06.2019 21:00:00 14,2 11,2 28 15 44 24 SW 1016,1 - 0,0
20.06.2019 20:00:00 14,7 11,3 32 17 46 25 SW 1016,0 - 0,0
20.06.2019 19:00:00 15,2 11,2 30 16 47 25 WSW 1015,8 - 0,0

tt = Température de l'air
td = dewpoint
ff = Vitesse du vent
fx = gusts
dd = Direction du vent
ppp = reduced air pressure
vv = visibility
rr = Quantités de précipitations

stations d'obs. à proximité